Weather History for Bangor, ME

Change the Weather History Date:

Saturday, July 20, 2013

  Actual Average Record
Temperature  
Mean Temperature 76 °F 69 °F  
Max Temperature 88 °F 80 °F 96 °F (1991)
Min Temperature 64 °F 58 °F 41 °F (1943)
Degree Days  
Heating Degree Days 0 1  
Month to date heating degree days 3 20  
Since 1 June heating degree days 103 127  
Since 1 July heating degree days 3 20  
Cooling Degree Days 11 5  
Month to date cooling degree days 157 81  
Year to date cooling degree days 222 139  
Since 1 June cooling degree days 214 133  
Growing Degree Days 28 (Base 50)    
Moisture  
Dew Point 66 °F    
Average Humidity 72    
Maximum Humidity 93    
Minimum Humidity 50    
Precipitation  
Precipitation 0.04 in 0.12 in 1.87 in (1951)
Month to date precipitation 1.45 2.17  
Year to date precipitation 18.20 21.98  
Snow  
Snow 0.00 in 0.00 in 0.00 in (2002)
Month to date snowfall 0.0 0.0  
Since 1 June snowfall 0.0 0.0  
Since 1 July snowfall 0.0 0.0  
Snow Depth 0.00 in    
Sea Level Pressure  
Sea Level Pressure 29.63 in    
Wind  
Wind Speed 7 mph (WSW)    
Max Wind Speed 18 mph    
Max Gust Speed 28 mph    
Visibility 10 miles    
Events Rain , Thunderstorm    
T = Trace of Precipitation, MM = Missing Value Source: NWS Daily Summary

Daily Weather History Graph

Daily Weather History Graph

Search for Another Location

Airport:

Trip Planner

Search our weather history database for the weather conditions in past years. The results will help you decide how hot, cold, wet, or windy it might be!

Date:

Astronomy

Jul. 20, 2013 Rise Set
Actual Time 5:08 AM EDT 8:14 PM EDT
Civil Twilight 4:33 AM EDT 8:49 PM EDT
Nautical Twilight 3:48 AM EDT 9:34 PM EDT
Astronomical Twilight 2:53 AM EDT 10:28 PM EDT
Moon 6:13 PM EDT (7/20) 2:45 AM EDT (7/20)
Length of Visible Light 16h 15m
Length of Day
15h 05m
Waxing Gibbous, 93% of the Moon is Illuminated
Jul 20
Waxing Gibbous
Jul 22
Full
Jul 29
Last Quarter
Aug 6
New
Aug 14
First Quarter

Hourly Weather History & Observations

Time (EDT) Temp. Heat Index Dew Point Humidity Pressure Visibility Wind Dir Wind Speed Gust Speed Precip Events Conditions
12:53 AM 73.0 °F - 69.1 °F 87% 29.61 in 10.0 mi SSW 6.9 mph - N/A   Scattered Clouds
1:53 AM 72.0 °F - 66.0 °F 81% 29.62 in 10.0 mi SSW 6.9 mph - N/A   Scattered Clouds
2:53 AM 73.0 °F - 64.0 °F 73% 29.58 in 10.0 mi SSW 4.6 mph - N/A   Partly Cloudy
3:53 AM 71.1 °F - 64.9 °F 81% 29.60 in 10.0 mi South 4.6 mph - N/A   Scattered Clouds
4:53 AM 69.1 °F - 64.9 °F 87% 29.60 in 10.0 mi South 4.6 mph - N/A   Mostly Cloudy
5:53 AM 68.0 °F - 66.0 °F 93% 29.62 in 10.0 mi Calm Calm - N/A   Scattered Clouds
6:53 AM 73.9 °F - 66.9 °F 79% 29.63 in 10.0 mi Calm Calm - N/A   Scattered Clouds
7:53 AM 77.0 °F - 69.1 °F 76% 29.65 in 10.0 mi Calm Calm - N/A   Mostly Cloudy
8:53 AM 80.1 °F 82.9 °F 69.1 °F 69% 29.65 in 10.0 mi WSW 5.8 mph - N/A   Mostly Cloudy
9:53 AM 82.0 °F 84.9 °F 68.0 °F 62% 29.63 in 10.0 mi West 10.4 mph - 0.01 in   Mostly Cloudy
10:53 AM 84.9 °F 87.6 °F 66.9 °F 55% 29.62 in 10.0 mi West 9.2 mph 18.4 mph N/A   Scattered Clouds
11:53 AM 82.0 °F 84.9 °F 68.0 °F 62% 29.62 in 10.0 mi WNW 4.6 mph - N/A   Mostly Cloudy
12:53 PM 84.0 °F 87.0 °F 68.0 °F 58% 29.62 in 10.0 mi SW 8.1 mph - N/A   Mostly Cloudy
1:53 PM 86.0 °F 88.8 °F 66.9 °F 53% 29.59 in 10.0 mi West 9.2 mph - N/A   Scattered Clouds
2:53 PM 87.1 °F 89.2 °F 66.0 °F 49% 29.58 in 10.0 mi West 11.5 mph 20.7 mph N/A   Mostly Cloudy
3:53 PM 82.0 °F 85.9 °F 70.0 °F 67% 29.57 in 10.0 mi SSW 6.9 mph - N/A   Overcast
4:53 PM 84.9 °F 88.2 °F 68.0 °F 57% 29.56 in 10.0 mi SW 10.4 mph - N/A   Overcast
5:45 PM 78.8 °F - 68.0 °F 69% 29.60 in 6.0 mi West 9.2 mph 16.1 mph 0.00 in Rain , Thunderstorm Light Thunderstorms and Rain
5:53 PM 73.9 °F - 69.1 °F 85% 29.59 in 3.0 mi SSW 18.4 mph 27.6 mph 0.02 in Rain , Thunderstorm Light Thunderstorms and Rain
6:28 PM 71.6 °F - 66.2 °F 83% 29.62 in 10.0 mi SSW 9.2 mph - N/A   Overcast
6:53 PM 72.0 °F - 68.0 °F 87% 29.61 in 10.0 mi SSW 6.9 mph - N/A   Overcast
7:53 PM 72.0 °F - 66.0 °F 81% 29.63 in 10.0 mi WSW 6.9 mph - N/A   Mostly Cloudy
8:53 PM 70.0 °F - 66.0 °F 87% 29.67 in 10.0 mi West 8.1 mph - N/A   Mostly Cloudy
9:53 PM 70.0 °F - 64.0 °F 81% 29.70 in 10.0 mi NW 6.9 mph - N/A   Scattered Clouds
10:53 PM 69.1 °F - 59.0 °F 70% 29.73 in 10.0 mi WNW 6.9 mph - N/A   Scattered Clouds
11:53 PM 68.0 °F - 52.0 °F 56% 29.77 in 10.0 mi NW 10.4 mph 19.6 mph N/A   Mostly Cloudy